Monroe, NC

8:30 PM EDT on October 19, 2017 (GMT -0400)
Monroe

Weather History for KEQY - November, 2013

Change the Weather History Date:

Saturday, November 2, 2013

  Actual Average (KCLT) Record (KCLT)
Temperature  
Mean Temperature 62 °F -  
Max Temperature 72 °F 69 °F 85 °F (1961)
Min Temperature 51 °F 48 °F 27 °F (1954)
Degree Days  
Heating Degree Days 4    
Growing Degree Days 12 (Base 50)    
Moisture  
Dew Point 51 °F    
Average Humidity 82    
Maximum Humidity 100    
Minimum Humidity 33    
Precipitation  
Precipitation 0.01 in - - ()
Sea Level Pressure  
Sea Level Pressure 29.82 in    
Wind  
Wind Speed 6 mph (WSW)    
Max Wind Speed 16 mph    
Max Gust Speed 22 mph    
Visibility 7 miles    
Events Fog    
Averages and records for this station are not official NWS values.
T = Trace of Precipitation, MM = Missing Value Source: NWS Daily Summary

Daily Weather History Graph

Daily Weather History Graph

Search for Another Location

Airport or City:

Trip Planner

Search our weather history database for the weather conditions in past years. The results will help you decide how hot, cold, wet, or windy it might be!

Date:

Astronomy

Nov. 02, 2013 Rise Set
Actual Time 7:44 AM EDT 6:26 PM EDT
Civil Twilight 7:18 AM EDT 6:53 PM EDT
Nautical Twilight 6:48 AM EDT 7:23 PM EDT
Astronomical Twilight 6:18 AM EDT 7:52 PM EDT
Moon 6:42 AM EDT (11/2) 5:56 PM EDT (11/2)
Length of Visible Light 11h 34m
Length of Day
10h 42m
Waning Crescent, 1% of the Moon is Illuminated
Nov 2
Waning Crescent
Nov 3
New
Nov 10
First Quarter
Nov 17
Full
Nov 25
Last Quarter

Hourly Weather History & Observations

Time (EDT) Temp. Dew Point Humidity Pressure Visibility Wind Dir Wind Speed Gust Speed Precip Events Conditions
12:02 AM 59.0 °F 57.2 °F 94% 29.75 in 10.0 mi SW 6.9 mph - N/A   Overcast
12:53 AM 59.0 °F 57.9 °F 96% 29.75 in 10.0 mi SSW 3.5 mph - N/A   Overcast
1:15 AM 60.8 °F 57.2 °F 88% 29.74 in 10.0 mi SW 6.9 mph - N/A   Overcast
1:53 AM 60.1 °F 57.9 °F 93% 29.75 in 8.0 mi WSW 5.8 mph - N/A   Overcast
2:53 AM 59.0 °F 57.9 °F 96% 29.76 in 6.0 mi SW 5.8 mph - N/A   Overcast
3:13 AM 57.2 °F 57.2 °F 100% 29.75 in 5.0 mi WSW 5.8 mph - N/A   Overcast
3:23 AM 59.0 °F 57.2 °F 94% 29.75 in 5.0 mi WSW 5.8 mph - N/A   Overcast
3:53 AM 59.0 °F 57.0 °F 93% 29.76 in 7.0 mi West 3.5 mph - N/A   Mostly Cloudy
4:48 AM 57.2 °F 55.4 °F 94% 29.76 in 7.0 mi West 6.9 mph - N/A   Scattered Clouds
4:53 AM 57.9 °F 55.9 °F 93% 29.78 in 7.0 mi West 6.9 mph - N/A   Partly Cloudy
5:53 AM 55.9 °F 55.0 °F 97% 29.78 in 4.0 mi WSW 4.6 mph - N/A   Mist
6:16 AM 55.4 °F 53.6 °F 94% 29.77 in 2.5 mi WSW 4.6 mph - N/A   Mist
6:26 AM 53.6 °F 53.6 °F 100% 29.78 in 1.0 mi WSW 5.8 mph - N/A   Mist
6:32 AM 53.6 °F 53.6 °F 100% 29.78 in 0.5 mi WSW 4.6 mph - N/A Fog Fog
6:53 AM 55.0 °F 54.0 °F 96% 29.81 in 0.2 mi West 4.6 mph - N/A Fog Fog
7:33 AM 53.6 °F 53.6 °F 100% 29.79 in 0.2 mi West 3.5 mph - N/A Fog Fog
7:53 AM 53.1 °F 52.0 °F 96% 29.82 in 0.2 mi West 3.5 mph - N/A Fog Fog
8:53 AM 53.1 °F 52.0 °F 96% 29.85 in 0.2 mi West 4.6 mph - N/A Fog Fog
9:43 AM 53.6 °F 53.6 °F 100% 29.83 in 1.0 mi WSW 5.8 mph - N/A   Mist
9:47 AM 55.4 °F 53.6 °F 94% 29.83 in 3.0 mi West 5.8 mph - N/A   Mostly Cloudy
9:53 AM 55.0 °F 54.0 °F 96% 29.86 in 8.0 mi West 5.8 mph - N/A   Scattered Clouds
10:53 AM 62.1 °F 55.0 °F 78% 29.85 in 10.0 mi WSW 5.8 mph - N/A   Clear
11:53 AM 66.9 °F 46.9 °F 49% 29.84 in 10.0 mi WSW 4.6 mph - N/A   Clear
12:53 PM 69.1 °F 45.0 °F 42% 29.83 in 10.0 mi NW 8.1 mph - N/A   Clear
1:53 PM 70.0 °F 44.1 °F 39% 29.81 in 10.0 mi WSW 10.4 mph - N/A   Clear
2:53 PM 71.1 °F 41.0 °F 34% 29.80 in 10.0 mi WSW 16.1 mph 21.9 mph N/A   Clear
3:53 PM 70.0 °F 39.9 °F 33% 29.79 in 10.0 mi West 12.7 mph 17.3 mph N/A   Partly Cloudy
4:53 PM 68.0 °F 39.0 °F 35% 29.80 in 10.0 mi WNW 9.2 mph - N/A   Mostly Cloudy
5:53 PM 57.0 °F 46.9 °F 69% 29.87 in 10.0 mi NW 6.9 mph - 0.01 in   Overcast
6:53 PM 55.0 °F 48.9 °F 80% 29.88 in 10.0 mi Calm Calm - 0.00 in   Mostly Cloudy
7:53 PM 52.0 °F 48.9 °F 89% 29.91 in 10.0 mi SW 4.6 mph - N/A   Partly Cloudy
8:53 PM 52.0 °F 48.0 °F 86% 29.94 in 10.0 mi West 3.5 mph - N/A   Clear
9:53 PM 52.0 °F 45.0 °F 77% 29.96 in 10.0 mi NW 4.6 mph - N/A   Clear
10:53 PM 52.0 °F 42.1 °F 69% 29.99 in 10.0 mi NW 4.6 mph - N/A   Clear
11:53 PM 51.1 °F 39.9 °F 66% 30.00 in 10.0 mi NW 4.6 mph - N/A   Clear